Time,TemperatureF,DewpointF,PressureIn,WindDirection,WindDirectionDegrees,WindSpeedMPH,WindSpeedGustMPH,Humidity,HourlyPrecipIn,Conditions,Clouds,dailyrainin,SoftwareType,DateUTC
2013-02-11 00:11:00,33.8,33.5,30.04,WSW,247,5.8,-999.0,99,-99.99,,,0.00,Acu-Link.com,2013-02-11 05:11:00,
2013-02-11 00:26:00,33.8,33.5,30.02,WSW,247,5.8,-999.0,99,-99.99,,,0.01,Acu-Link.com,2013-02-11 05:26:00,
2013-02-11 00:41:00,34.5,34.2,30.02,West,270,6.8,-999.0,99,-99.99,,,0.01,Acu-Link.com,2013-02-11 05:41:00,
2013-02-11 00:57:00,35.2,34.9,30.02,WSW,247,5.3,-999.0,99,-99.99,,,0.01,Acu-Link.com,2013-02-11 05:57:00,
2013-02-11 01:12:00,35.6,35.3,30.02,SW,225,4.2,-999.0,99,-99.99,,,0.01,Acu-Link.com,2013-02-11 06:12:00,
2013-02-11 01:27:00,35.6,35.3,30.02,WSW,247,4.7,-999.0,99,-99.99,,,0.01,Acu-Link.com,2013-02-11 06:27:00,
2013-02-11 01:43:00,36.0,35.7,30.00,WSW,247,4.7,-999.0,99,-99.99,,,0.02,Acu-Link.com,2013-02-11 06:43:00,
2013-02-11 01:58:00,36.9,36.6,30.00,WSW,247,4.7,-999.0,99,-99.99,,,0.02,Acu-Link.com,2013-02-11 06:58:00,
2013-02-11 02:13:00,37.8,37.5,30.00,WSW,247,7.8,-999.0,99,-99.99,,,0.02,Acu-Link.com,2013-02-11 07:13:00,
2013-02-11 02:28:00,38.1,37.8,29.99,WSW,247,5.3,-999.0,99,-99.99,,,0.02,Acu-Link.com,2013-02-11 07:28:00,
2013-02-11 02:44:00,38.5,38.2,29.97,WSW,247,4.7,-999.0,99,-99.99,,,0.02,Acu-Link.com,2013-02-11 07:44:00,
2013-02-11 02:59:00,39.0,38.7,29.96,WSW,247,3.7,-999.0,99,-99.99,,,0.02,Acu-Link.com,2013-02-11 07:59:00,
2013-02-11 03:14:00,39.4,39.1,29.95,SW,225,3.7,-999.0,99,-99.99,,,0.02,Acu-Link.com,2013-02-11 08:14:00,
2013-02-11 03:30:00,40.1,39.8,29.94,WSW,247,5.3,-999.0,99,-99.99,,,0.02,Acu-Link.com,2013-02-11 08:30:00,
2013-02-11 03:45:00,41.5,41.2,29.94,SW,225,7.3,-999.0,99,-99.99,,,0.02,Acu-Link.com,2013-02-11 08:45:00,
2013-02-11 04:00:00,42.1,41.8,29.94,WSW,247,9.9,-999.0,99,-99.99,,,0.02,Acu-Link.com,2013-02-11 09:00:00,
2013-02-11 04:17:00,42.3,42.0,29.93,SW,225,8.9,-999.0,99,-99.99,,,0.02,Acu-Link.com,2013-02-11 09:17:00,
2013-02-11 04:32:00,43.5,43.2,29.93,WSW,247,10.4,-999.0,99,-99.99,,,0.02,Acu-Link.com,2013-02-11 09:32:00,
2013-02-11 04:48:00,44.2,43.9,29.92,SW,225,8.3,-999.0,99,-99.99,,,0.02,Acu-Link.com,2013-02-11 09:48:00,
2013-02-11 05:03:00,44.8,44.5,29.91,SW,225,8.9,-999.0,99,-99.99,,,0.02,Acu-Link.com,2013-02-11 10:03:00,
2013-02-11 05:18:00,45.7,45.4,29.91,West,270,9.4,-999.0,99,-99.99,,,0.02,Acu-Link.com,2013-02-11 10:18:00,
2013-02-11 05:33:00,46.0,45.7,29.92,WSW,247,7.3,-999.0,99,-99.99,,,0.02,Acu-Link.com,2013-02-11 10:33:00,
2013-02-11 05:48:00,46.6,46.3,29.92,SW,225,10.4,-999.0,99,-99.99,,,0.03,Acu-Link.com,2013-02-11 10:48:00,
2013-02-11 06:04:00,46.8,46.5,29.91,WSW,247,6.3,-999.0,99,-99.99,,,0.03,Acu-Link.com,2013-02-11 11:04:00,
2013-02-11 06:19:00,46.9,46.6,29.90,WSW,247,8.3,-999.0,99,-99.99,,,0.03,Acu-Link.com,2013-02-11 11:19:00,
2013-02-11 06:34:00,47.3,47.0,29.90,West,270,10.4,-999.0,99,-99.99,,,0.03,Acu-Link.com,2013-02-11 11:34:00,
2013-02-11 06:49:00,47.7,47.4,29.89,SW,225,7.3,-999.0,99,-99.99,,,0.03,Acu-Link.com,2013-02-11 11:49:00,
2013-02-11 07:04:00,48.0,47.7,29.90,WSW,247,15.5,-999.0,99,-99.99,,,0.03,Acu-Link.com,2013-02-11 12:04:00,
2013-02-11 07:19:00,48.0,47.7,29.90,WSW,247,11.9,-999.0,99,-99.99,,,0.03,Acu-Link.com,2013-02-11 12:19:00,
2013-02-11 07:35:00,48.0,47.7,29.89,WSW,247,9.4,-999.0,99,-99.99,,,0.03,Acu-Link.com,2013-02-11 12:35:00,
2013-02-11 07:50:00,48.4,48.1,29.89,SW,225,10.9,-999.0,99,-99.99,,,0.03,Acu-Link.com,2013-02-11 12:50:00,
2013-02-11 08:05:00,48.6,48.3,29.89,WSW,247,9.4,-999.0,99,-99.99,,,0.03,Acu-Link.com,2013-02-11 13:05:00,
2013-02-11 08:20:00,49.1,48.8,29.87,WSW,247,9.9,-999.0,99,-99.99,,,0.03,Acu-Link.com,2013-02-11 13:20:00,
2013-02-11 08:36:00,49.5,49.2,29.88,West,270,9.9,-999.0,99,-99.99,,,0.03,Acu-Link.com,2013-02-11 13:36:00,
2013-02-11 08:51:00,49.5,49.0,29.87,WSW,247,10.9,-999.0,98,-99.99,,,0.03,Acu-Link.com,2013-02-11 13:51:00,
2013-02-11 09:06:00,50.7,49.6,29.87,SW,225,10.4,-999.0,96,-99.99,,,0.03,Acu-Link.com,2013-02-11 14:06:00,
2013-02-11 09:21:00,50.9,49.5,29.87,WSW,247,12.5,-999.0,95,-99.99,,,0.03,Acu-Link.com,2013-02-11 14:21:00,
2013-02-11 09:36:00,52.7,51.0,29.85,WSW,247,13.0,-999.0,94,-99.99,,,0.03,Acu-Link.com,2013-02-11 14:36:00,
2013-02-11 09:52:00,53.6,50.7,29.84,SW,225,9.4,-999.0,90,-99.99,,,0.03,Acu-Link.com,2013-02-11 14:52:00,
2013-02-11 10:07:00,54.5,51.3,29.84,SW,225,7.3,-999.0,89,-99.99,,,0.03,Acu-Link.com,2013-02-11 15:07:00,
2013-02-11 10:22:00,54.7,50.6,29.83,WSW,247,11.9,-999.0,86,-99.99,,,0.03,Acu-Link.com,2013-02-11 15:22:00,
2013-02-11 10:37:00,55.8,51.4,29.82,WSW,247,8.9,-999.0,85,-99.99,,,0.03,Acu-Link.com,2013-02-11 15:37:00,
2013-02-11 10:52:00,56.7,51.3,29.78,West,270,15.5,-999.0,82,-99.99,,,0.03,Acu-Link.com,2013-02-11 15:52:00,
2013-02-11 11:07:00,56.1,50.7,29.80,WSW,247,12.5,-999.0,82,-99.99,,,0.03,Acu-Link.com,2013-02-11 16:07:00,
2013-02-11 11:22:00,55.8,50.4,29.82,WSW,247,11.4,-999.0,82,-99.99,,,0.03,Acu-Link.com,2013-02-11 16:22:00,
2013-02-11 11:37:00,56.3,50.5,29.81,WSW,247,7.3,-999.0,81,-99.99,,,0.03,Acu-Link.com,2013-02-11 16:37:00,
2013-02-11 11:53:00,55.8,50.4,29.82,WSW,247,9.9,-999.0,82,-99.99,,,0.03,Acu-Link.com,2013-02-11 16:53:00,
2013-02-11 12:08:00,55.8,50.4,29.82,WSW,247,13.0,-999.0,82,-99.99,,,0.03,Acu-Link.com,2013-02-11 17:08:00,
2013-02-11 12:23:00,55.8,49.7,29.81,WSW,247,10.4,-999.0,80,-99.99,,,0.03,Acu-Link.com,2013-02-11 17:23:00,
2013-02-11 12:38:00,55.9,50.5,29.80,WSW,247,9.9,-999.0,82,-99.99,,,0.03,Acu-Link.com,2013-02-11 17:38:00,
2013-02-11 12:53:00,56.3,50.5,29.79,West,270,17.1,-999.0,81,-99.99,,,0.03,Acu-Link.com,2013-02-11 17:53:00,
2013-02-11 13:08:00,56.1,50.3,29.79,SW,225,10.4,-999.0,81,-99.99,,,0.03,Acu-Link.com,2013-02-11 18:08:00,
2013-02-11 13:23:00,55.9,50.2,29.77,WSW,247,9.9,-999.0,81,-99.99,,,0.03,Acu-Link.com,2013-02-11 18:23:00,
2013-02-11 13:39:00,55.9,49.1,29.76,West,270,14.5,-999.0,78,-99.99,,,0.03,Acu-Link.com,2013-02-11 18:39:00,
2013-02-11 13:54:00,55.2,48.1,29.76,WSW,247,13.5,-999.0,77,-99.99,,,0.03,Acu-Link.com,2013-02-11 18:54:00,
2013-02-11 14:09:00,54.9,46.8,29.77,WSW,247,14.5,-999.0,74,-99.99,,,0.03,Acu-Link.com,2013-02-11 19:09:00,
2013-02-11 14:24:00,54.1,46.7,29.79,West,270,18.1,-999.0,76,-99.99,,,0.04,Acu-Link.com,2013-02-11 19:24:00,
2013-02-11 14:39:00,54.1,46.7,29.78,West,270,15.0,-999.0,76,-99.99,,,0.04,Acu-Link.com,2013-02-11 19:39:00,
2013-02-11 14:55:00,53.6,46.2,29.79,WSW,247,17.1,-999.0,76,-99.99,,,0.04,Acu-Link.com,2013-02-11 19:55:00,
2013-02-11 15:10:00,53.6,44.4,29.77,WSW,247,17.6,-999.0,71,-99.99,,,0.04,Acu-Link.com,2013-02-11 20:10:00,
2013-02-11 15:25:00,53.6,44.1,29.76,WSW,247,20.7,-999.0,70,-99.99,,,0.04,Acu-Link.com,2013-02-11 20:25:00,
2013-02-11 15:41:00,53.4,43.1,29.76,West,270,23.3,-999.0,68,-99.99,,,0.04,Acu-Link.com,2013-02-11 20:41:00,
2013-02-11 15:56:00,53.2,42.1,29.76,West,270,15.5,-999.0,66,-99.99,,,0.04,Acu-Link.com,2013-02-11 20:56:00,
2013-02-11 16:11:00,52.9,40.7,29.76,WSW,247,16.6,-999.0,63,-99.99,,,0.04,Acu-Link.com,2013-02-11 21:11:00,
2013-02-11 16:26:00,52.5,37.3,29.76,WSW,247,17.1,-999.0,56,-99.99,,,0.04,Acu-Link.com,2013-02-11 21:26:00,
2013-02-11 16:41:00,52.2,36.5,29.77,West,270,19.7,-999.0,55,-99.99,,,0.04,Acu-Link.com,2013-02-11 21:41:00,
2013-02-11 16:57:00,51.3,37.0,29.77,WSW,247,14.5,-999.0,58,-99.99,,,0.04,Acu-Link.com,2013-02-11 21:57:00,
2013-02-11 17:12:00,50.9,37.5,29.76,WSW,247,16.6,-999.0,60,-99.99,,,0.04,Acu-Link.com,2013-02-11 22:12:00,
2013-02-11 17:27:00,50.5,38.4,29.77,WSW,247,18.6,-999.0,63,-99.99,,,0.04,Acu-Link.com,2013-02-11 22:27:00,
2013-02-11 17:43:00,50.0,38.3,29.76,West,270,15.5,-999.0,64,-99.99,,,0.04,Acu-Link.com,2013-02-11 22:43:00,
2013-02-11 17:58:00,49.8,38.9,29.76,West,270,16.6,-999.0,66,-99.99,,,0.04,Acu-Link.com,2013-02-11 22:58:00,
2013-02-11 18:13:00,49.5,38.6,29.77,WSW,247,21.2,-999.0,66,-99.99,,,0.04,Acu-Link.com,2013-02-11 23:13:00,
2013-02-11 18:29:00,49.1,38.6,29.77,WSW,247,15.5,-999.0,67,-99.99,,,0.04,Acu-Link.com,2013-02-11 23:29:00,
2013-02-11 18:44:00,48.9,39.2,29.77,WSW,247,19.7,-999.0,69,-99.99,,,0.04,Acu-Link.com,2013-02-11 23:44:00,
2013-02-11 18:59:00,48.6,39.3,29.77,West,270,15.0,-999.0,70,-99.99,,,0.04,Acu-Link.com,2013-02-11 23:59:00,
2013-02-11 19:14:00,48.4,39.4,29.77,West,270,16.6,-999.0,71,-99.99,,,0.04,Acu-Link.com,2013-02-12 00:14:00,
2013-02-11 19:29:00,48.4,38.0,29.78,West,270,20.7,-999.0,67,-99.99,,,0.04,Acu-Link.com,2013-02-12 00:29:00,
2013-02-11 19:45:00,48.0,38.3,29.78,West,270,14.0,-999.0,69,-99.99,,,0.04,Acu-Link.com,2013-02-12 00:45:00,
2013-02-11 20:00:00,48.0,37.6,29.78,WSW,247,24.8,-999.0,67,-99.99,,,0.04,Acu-Link.com,2013-02-12 01:00:00,
2013-02-11 20:15:00,47.7,37.7,29.78,West,270,20.7,-999.0,68,-99.99,,,0.04,Acu-Link.com,2013-02-12 01:15:00,
2013-02-11 20:30:00,47.5,36.7,29.79,WSW,247,18.6,-999.0,66,-99.99,,,0.04,Acu-Link.com,2013-02-12 01:30:00,
2013-02-11 20:45:00,46.9,36.5,29.79,WSW,247,11.4,-999.0,67,-99.99,,,0.04,Acu-Link.com,2013-02-12 01:45:00,
2013-02-11 21:01:00,46.9,36.5,29.79,West,270,19.7,-999.0,67,-99.99,,,0.04,Acu-Link.com,2013-02-12 02:01:00,
2013-02-11 21:16:00,46.4,35.7,29.79,WSW,247,17.6,-999.0,66,-99.99,,,0.04,Acu-Link.com,2013-02-12 02:16:00,
2013-02-11 21:31:00,46.0,35.3,29.79,West,270,15.5,-999.0,66,-99.99,,,0.04,Acu-Link.com,2013-02-12 02:31:00,
2013-02-11 21:46:00,46.0,34.9,29.79,WSW,247,20.2,-999.0,65,-99.99,,,0.04,Acu-Link.com,2013-02-12 02:46:00,
2013-02-11 22:01:00,45.7,33.4,29.80,WSW,247,15.0,-999.0,62,-99.99,,,0.04,Acu-Link.com,2013-02-12 03:01:00,
2013-02-11 22:16:00,45.7,31.4,29.79,West,270,13.5,-999.0,57,-99.99,,,0.04,Acu-Link.com,2013-02-12 03:16:00,
2013-02-11 22:31:00,45.5,30.3,29.79,West,270,18.1,-999.0,55,-99.99,,,0.04,Acu-Link.com,2013-02-12 03:31:00,
2013-02-11 22:46:00,45.1,29.0,29.80,West,270,14.5,-999.0,53,-99.99,,,0.04,Acu-Link.com,2013-02-12 03:46:00,
2013-02-11 23:01:00,45.0,28.9,29.80,West,270,15.5,-999.0,53,-99.99,,,0.04,Acu-Link.com,2013-02-12 04:01:00,
2013-02-11 23:17:00,44.6,27.1,29.80,West,270,13.0,-999.0,50,-99.99,,,0.04,Acu-Link.com,2013-02-12 04:17:00,
2013-02-11 23:32:00,44.2,26.3,29.80,West,270,13.5,-999.0,49,-99.99,,,0.04,Acu-Link.com,2013-02-12 04:32:00,
2013-02-11 23:47:00,43.9,26.0,29.81,WSW,247,21.2,-999.0,49,-99.99,,,0.04,Acu-Link.com,2013-02-12 04:47:00,